TimeEDT,TemperatureF,Dew PointF,Humidity,Sea Level PressureIn,VisibilityMPH,Wind Direction,Wind SpeedMPH,Gust SpeedMPH,PrecipitationIn,Events,Conditions,WindDirDegrees,DateUTC
12:52 AM,57.0,52.0,83,30.26,10.0,SE,4.6,-,N/A,,Clear,130,2011-10-05 04:52:00
1:52 AM,57.0,53.1,87,30.26,10.0,SE,6.9,-,N/A,,Clear,140,2011-10-05 05:52:00
2:52 AM,55.0,52.0,89,30.26,10.0,SE,3.5,-,N/A,,Clear,130,2011-10-05 06:52:00
3:52 AM,54.0,52.0,93,30.26,8.0,Calm,Calm,-,N/A,,Clear,0,2011-10-05 07:52:00
4:52 AM,53.1,51.1,93,30.26,7.0,Calm,Calm,-,N/A,,Clear,0,2011-10-05 08:52:00
5:52 AM,51.8,48.2,88,30.28,8.0,Calm,Calm,-,N/A,,Clear,0,2011-10-05 09:52:00
6:52 AM,51.1,48.9,92,30.29,9.0,Calm,Calm,-,N/A,,Clear,0,2011-10-05 10:52:00
7:52 AM,50.0,48.0,93,30.30,6.0,Calm,Calm,-,N/A,,Partly Cloudy,0,2011-10-05 11:52:00
8:52 AM,55.0,52.0,89,30.31,7.0,Calm,Calm,-,N/A,,Partly Cloudy,0,2011-10-05 12:52:00
9:52 AM,60.1,54.0,80,30.31,8.0,Calm,Calm,-,N/A,,Partly Cloudy,0,2011-10-05 13:52:00
10:52 AM,66.9,55.9,68,30.31,8.0,Calm,Calm,-,N/A,,Clear,0,2011-10-05 14:52:00
11:52 AM,71.1,57.0,61,30.30,10.0,Calm,Calm,-,N/A,,Partly Cloudy,0,2011-10-05 15:52:00
12:52 PM,73.0,52.0,48,30.29,10.0,Calm,Calm,-,N/A,,Partly Cloudy,0,2011-10-05 16:52:00
1:52 PM,75.0,51.1,43,30.27,10.0,Calm,Calm,-,N/A,,Clear,0,2011-10-05 17:52:00
2:52 PM,75.0,52.0,44,30.25,10.0,Calm,Calm,-,N/A,,Partly Cloudy,0,2011-10-05 18:52:00
3:52 PM,77.0,51.8,41,30.25,10.0,Calm,Calm,-,N/A,,Partly Cloudy,0,2011-10-05 19:52:00
4:52 PM,78.8,51.8,39,30.24,10.0,Calm,Calm,-,N/A,,Partly Cloudy,0,2011-10-05 20:52:00
6:52 PM,73.0,48.9,42,30.22,10.0,East,3.5,-,N/A,,Partly Cloudy,100,2011-10-05 22:52:00
7:52 PM,68.0,53.1,59,30.22,10.0,ESE,3.5,-,N/A,,Partly Cloudy,120,2011-10-05 23:52:00
8:52 PM,63.0,52.0,67,30.23,10.0,Calm,Calm,-,N/A,,Clear,0,2011-10-06 00:52:00
9:52 PM,60.1,52.0,75,30.24,10.0,Calm,Calm,-,N/A,,Clear,0,2011-10-06 01:52:00
10:52 PM,59.0,53.1,81,30.24,10.0,Calm,Calm,-,N/A,,Clear,0,2011-10-06 02:52:00
11:52 PM,59.0,52.0,78,30.24,10.0,Calm,Calm,-,N/A,,Partly Cloudy,0,2011-10-06 03:52:00